| time (UTC) | temp F | wind direction | speed MPH | gust MPH | rain 1hr in | rain 24hr in | rain mn in | humidity % | barometer mb |
| 20260902164517 | 93 | 113 | 1.0 | 2.0 | 0.00 | 0.00 | 0.00 | 57 | 1021.6 |
| 20260902163517 | 93 | 0 | 1.0 | 4.0 | 0.00 | 0.00 | 0.00 | 57 | 1021.6 |
| 20260902162517 | 92 | 0.0 | 0.0 | 0.00 | 0.00 | 0.00 | 58 | 1021.8 | |
| 20260902161517 | 91 | 0.0 | 2.0 | 0.00 | 0.00 | 0.00 | 60 | 1021.8 | |
| 20260902160518 | 91 | 0.0 | 2.0 | 0.00 | 0.00 | 0.00 | 60 | 1021.8 | |
| 20260902155517 | 90 | 0 | 2.0 | 5.0 | 0.00 | 0.00 | 0.00 | 64 | 1022.0 |
| 20260902154517 | 89 | 23 | 1.0 | 4.0 | 0.00 | 0.00 | 0.00 | 61 | 1021.9 |
| 20260902153537 | 88 | 248 | 1.0 | 3.0 | 0.00 | 0.00 | 0.00 | 64 | 1022.0 |
| 20260902152517 | 86 | 0.0 | 0.0 | 0.00 | 0.00 | 0.00 | 70 | 1022.0 | |
| 20260902151517 | 84 | 0.0 | 0.0 | 0.00 | 0.00 | 0.00 | 74 | 1021.9 | |
| 20260902150518 | 83 | 0.0 | 0.0 | 0.00 | 0.00 | 0.00 | 75 | 1021.8 | |
| 20260902145537 | 82 | 0.0 | 0.0 | 0.00 | 0.00 | 0.00 | 75 | 1021.8 | |
| 20260902144517 | 82 | 0.0 | 0.0 | 0.00 | 0.00 | 0.00 | 78 | 1021.8 | |
| 20260902143517 | 81 | 0.0 | 0.0 | 0.00 | 0.00 | 0.00 | 79 | 1021.7 | |
| 20260902142517 | 80 | 0.0 | 0.0 | 0.00 | 0.00 | 0.00 | 82 | 1021.8 | |
| 20260902141517 | 80 | 0.0 | 0.0 | 0.00 | 0.00 | 0.00 | 83 | 1022.0 | |
| 20260902140517 | 79 | 0.0 | 0.0 | 0.00 | 0.00 | 0.00 | 85 | 1021.8 | |
| 20260902135517 | 78 | 0.0 | 0.0 | 0.00 | 0.00 | 0.00 | 89 | 1021.8 | |
| 20260902134517 | 77 | 0.0 | 0.0 | 0.00 | 0.00 | 0.00 | 91 | 1021.7 | |
| 20260902133517 | 77 | 0.0 | 0.0 | 0.00 | 0.00 | 0.00 | 92 | 1021.8 | |
| 20260902132517 | 76 | 0.0 | 0.0 | 0.00 | 0.00 | 0.00 | 93 | 1021.8 | |
| 20260902131517 | 75 | 0.0 | 0.0 | 0.00 | 0.00 | 0.00 | 94 | 1021.8 | |
| 20260902130516 | 75 | 0.0 | 0.0 | 0.00 | 0.00 | 0.00 | 95 | 1021.7 | |
| 20260902125516 | 74 | 0.0 | 0.0 | 0.00 | 0.00 | 0.00 | 96 | 1021.6 | |
| 20260902124516 | 73 | 0.0 | 0.0 | 0.00 | 0.00 | 0.00 | 96 | 1021.6 | |
| 20260902123516 | 73 | 0.0 | 0.0 | 0.00 | 0.00 | 0.00 | 96 | 1021.7 | |
| 20260902122517 | 72 | 0.0 | 0.0 | 0.00 | 0.00 | 0.00 | 96 | 1021.5 | |
| 20260902121536 | 72 | 0.0 | 0.0 | 0.00 | 0.00 | 0.00 | 96 | 1021.3 | |
| 20260902120517 | 72 | 0.0 | 0.0 | 0.00 | 0.00 | 0.00 | 95 | 1021.0 | |
| 20260902115516 | 71 | 0.0 | 0.0 | 0.00 | 0.00 | 0.00 | 95 | 1020.9 | |
| 20260902114516 | 71 | 0.0 | 0.0 | 0.00 | 0.00 | 0.00 | 94 | 1020.9 | |
| 20260902113516 | 71 | 0.0 | 0.0 | 0.00 | 0.00 | 0.00 | 94 | 1020.8 | |
| 20260902112536 | 71 | 0.0 | 0.0 | 0.00 | 0.00 | 0.00 | 94 | 1020.8 | |
| 20260902111516 | 71 | 0.0 | 0.0 | 0.00 | 0.00 | 0.00 | 94 | 1020.7 | |
| 20260902110516 | 71 | 0.0 | 0.0 | 0.00 | 0.00 | 0.00 | 94 | 1020.6 | |
| 20260902105517 | 71 | 0.0 | 0.0 | 0.00 | 0.00 | 0.00 | 94 | 1020.8 | |
| 20260902104637 | 71 | 0.0 | 0.0 | 0.00 | 0.00 | 0.00 | 94 | 1020.7 | |
| 20260902103516 | 71 | 0.0 | 0.0 | 0.00 | 0.00 | 0.00 | 94 | 1020.6 | |
| 20260902102516 | 71 | 0.0 | 0.0 | 0.00 | 0.00 | 0.00 | 94 | 1020.6 | |
| 20260902101516 | 72 | 0.0 | 0.0 | 0.00 | 0.00 | 0.00 | 94 | 1020.6 | |
| 20260902100516 | 72 | 0.0 | 0.0 | 0.00 | 0.00 | 0.00 | 94 | 1020.7 | |
| 20260902095517 | 72 | 0.0 | 0.0 | 0.00 | 0.00 | 0.00 | 94 | 1020.6 | |
| 20260902094516 | 72 | 0.0 | 0.0 | 0.00 | 0.00 | 0.00 | 94 | 1020.5 | |
| 20260902093516 | 72 | 0.0 | 0.0 | 0.00 | 0.00 | 0.00 | 93 | 1020.4 | |
| 20260902092516 | 72 | 0.0 | 0.0 | 0.00 | 0.00 | 0.00 | 93 | 1020.4 | |
| 20260902091516 | 72 | 0.0 | 0.0 | 0.00 | 0.00 | 0.00 | 94 | 1020.3 | |
| 20260902090536 | 72 | 0.0 | 0.0 | 0.00 | 0.00 | 0.00 | 93 | 1020.3 | |
| 20260902085515 | 72 | 0.0 | 0.0 | 0.00 | 0.00 | 0.00 | 93 | 1020.1 | |
| 20260902084537 | 72 | 0.0 | 0.0 | 0.00 | 0.00 | 0.00 | 93 | 1020.0 | |
| 20260902083516 | 72 | 0.0 | 0.0 | 0.00 | 0.00 | 0.00 | 93 | 1020.0 | |
| 20260902082515 | 72 | 0.0 | 0.0 | 0.00 | 0.00 | 0.00 | 92 | 1020.0 | |
| 20260902081515 | 72 | 0.0 | 0.0 | 0.00 | 0.00 | 0.00 | 92 | 1019.8 | |
| 20260902080515 | 72 | 0.0 | 0.0 | 0.00 | 0.00 | 0.00 | 92 | 1019.9 | |
| 20260902075516 | 73 | 0.0 | 0.0 | 0.00 | 0.00 | 0.00 | 92 | 1019.9 | |
| 20260902074516 | 73 | 0.0 | 0.0 | 0.00 | 0.00 | 0.00 | 92 | 1019.9 | |
| 20260902073516 | 73 | 0.0 | 0.0 | 0.00 | 0.00 | 0.00 | 91 | 1019.9 | |
| 20260902072535 | 73 | 0.0 | 0.0 | 0.00 | 0.00 | 0.00 | 91 | 1020.0 | |
| 20260902071556 | 73 | 0.0 | 0.0 | 0.00 | 0.00 | 0.00 | 91 | 1020.0 | |
| 20260902070515 | 73 | 0.0 | 0.0 | 0.00 | 0.00 | 0.00 | 91 | 1020.1 | |
| 20260902065516 | 73 | 0.0 | 0.0 | 0.00 | 0.00 | 0.00 | 91 | 1020.2 | |
| 20260902064516 | 73 | 0.0 | 0.0 | 0.00 | 0.00 | 0.00 | 91 | 1020.1 | |
| 20260902063516 | 73 | 0.0 | 0.0 | 0.00 | 0.00 | 0.00 | 90 | 1020.1 | |
| 20260902062518 | 73 | 0.0 | 0.0 | 0.00 | 0.00 | 0.00 | 90 | 1020.2 | |
| 20260902061517 | 73 | 0.0 | 0.0 | 0.00 | 0.00 | 0.00 | 90 | 1020.3 | |
| 20260902060517 | 73 | 0.0 | 0.0 | 0.00 | 0.00 | 0.00 | 90 | 1020.4 | |
| 20260902055517 | 74 | 0.0 | 0.0 | 0.00 | 0.00 | 0.00 | 90 | 1020.5 | |
| 20260902054517 | 74 | 0.0 | 0.0 | 0.00 | 0.00 | 0.00 | 90 | 1020.4 | |
| 20260902053537 | 74 | 0.0 | 0.0 | 0.00 | 0.00 | 0.00 | 89 | 1020.5 | |
| 20260902052518 | 74 | 0.0 | 0.0 | 0.00 | 0.00 | 0.00 | 89 | 1020.5 | |
| 20260902051517 | 74 | 0.0 | 0.0 | 0.00 | 0.00 | 0.00 | 89 | 1020.6 | |
| 20260902050517 | 74 | 0.0 | 0.0 | 0.00 | 0.00 | 0.00 | 88 | 1020.6 | |
| 20260902045517 | 75 | 0.0 | 0.0 | 0.00 | 0.00 | 0.00 | 88 | 1020.5 | |
| 20260902044538 | 75 | 0.0 | 0.0 | 0.00 | 0.00 | 0.00 | 88 | 1020.5 | |
| 20260902043517 | 75 | 0.0 | 0.0 | 0.00 | 0.00 | 0.00 | 88 | 1020.5 | |
| 20260902042517 | 75 | 0.0 | 0.0 | 0.00 | 0.00 | 0.00 | 87 | 1020.5 | |
| 20260902041539 | 75 | 0.0 | 0.0 | 0.00 | 0.00 | 0.00 | 86 | 1020.6 | |
| 20260902040517 | 75 | 0.0 | 0.0 | 0.00 | 0.00 | 0.00 | 84 | 1020.6 | |
| 20260902035517 | 76 | 0.0 | 0.0 | 0.00 | 0.00 | 0.00 | 84 | 1020.5 | |
| 20260902034517 | 76 | 0.0 | 0.0 | 0.00 | 0.00 | 0.00 | 83 | 1020.5 | |
| 20260902033517 | 76 | 0.0 | 0.0 | 0.00 | 0.00 | 0.00 | 83 | 1020.5 | |
| 20260902032517 | 76 | 0.0 | 0.0 | 0.00 | 0.00 | 0.00 | 83 | 1020.2 | |
| 20260902031537 | 76 | 0.0 | 0.0 | 0.00 | 0.00 | 0.00 | 82 | 1020.3 | |
| 20260902030518 | 76 | 0.0 | 0.0 | 0.00 | 0.00 | 0.00 | 80 | 1020.3 | |
| 20260902025517 | 76 | 0.0 | 0.0 | 0.00 | 0.00 | 0.00 | 80 | 1020.1 | |
| 20260902024517 | 76 | 0.0 | 0.0 | 0.00 | 0.00 | 0.00 | 80 | 1020.1 | |
| 20260902023517 | 76 | 0.0 | 0.0 | 0.00 | 0.00 | 0.00 | 81 | 1020.1 | |
| 20260902022517 | 76 | 0.0 | 0.0 | 0.00 | 0.00 | 0.00 | 81 | 1020.0 | |
| 20260902021517 | 76 | 0.0 | 0.0 | 0.00 | 0.00 | 0.00 | 82 | 1019.9 | |
| 20260902020517 | 77 | 0.0 | 0.0 | 0.00 | 0.00 | 0.00 | 81 | 1020.0 | |
| 20260902015517 | 77 | 0.0 | 0.0 | 0.00 | 0.00 | 0.00 | 81 | 1019.7 | |
| 20260902014558 | 78 | 0.0 | 0.0 | 0.00 | 0.00 | 0.00 | 81 | 1019.7 | |
| 20260902013517 | 78 | 0.0 | 0.0 | 0.00 | 0.00 | 0.00 | 78 | 1019.6 | |
| 20260902012517 | 78 | 0.0 | 0.0 | 0.00 | 0.00 | 0.00 | 76 | 1019.5 | |
| 20260902011517 | 79 | 0.0 | 0.0 | 0.00 | 0.00 | 0.00 | 76 | 1019.5 | |
| 20260902010518 | 79 | 0.0 | 0.0 | 0.00 | 0.00 | 0.00 | 74 | 1019.3 | |
| 20260902005517 | 80 | 0.0 | 0.0 | 0.00 | 0.00 | 0.00 | 72 | 1019.0 | |
| 20260902004516 | 80 | 0.0 | 0.0 | 0.00 | 0.00 | 0.00 | 71 | 1019.1 | |
| 20260902003517 | 81 | 0.0 | 0.0 | 0.00 | 0.00 | 0.00 | 70 | 1019.2 | |
| 20260902002517 | 81 | 0.0 | 0.0 | 0.00 | 0.00 | 0.00 | 70 | 1019.1 | |
| 20260902001516 | 82 | 0.0 | 0.0 | 0.00 | 0.00 | 0.00 | 68 | 1019.3 | |
| 20260902000517 | 82 | 0.0 | 0.0 | 0.00 | 0.00 | 0.00 | 67 | 1019.2 | |
| 20260901235516 | 83 | 0.0 | 0.0 | 0.00 | 0.00 | 0.00 | 66 | 1019.3 | |
| 20260901234517 | 84 | 0.0 | 0.0 | 0.00 | 0.00 | 0.00 | 66 | 1019.3 | |
| 20260901233516 | 84 | 0.0 | 0.0 | 0.00 | 0.00 | 0.00 | 64 | 1019.3 | |
| 20260901232516 | 85 | 0.0 | 0.0 | 0.00 | 0.00 | 0.00 | 63 | 1019.3 | |
| 20260901231516 | 86 | 0.0 | 0.0 | 0.00 | 0.00 | 0.00 | 61 | 1019.3 | |
| 20260901230516 | 86 | 0.0 | 0.0 | 0.00 | 0.00 | 0.00 | 59 | 1019.4 | |
| 20260901225516 | 87 | 0.0 | 0.0 | 0.00 | 0.00 | 0.00 | 58 | 1019.4 | |
| 20260901224517 | 88 | 0.0 | 0.0 | 0.00 | 0.00 | 0.00 | 54 | 1019.5 | |
| 20260901223517 | 89 | 0.0 | 0.0 | 0.00 | 0.00 | 0.00 | 54 | 1019.4 | |
| 20260901222516 | 90 | 0.0 | 0.0 | 0.00 | 0.00 | 0.00 | 55 | 1019.5 | |
| 20260901221516 | 91 | 0.0 | 1.0 | 0.00 | 0.00 | 0.00 | 55 | 1019.5 | |
| 20260901220516 | 91 | 0.0 | 2.0 | 0.00 | 0.00 | 0.00 | 56 | 1019.4 | |
| 20260901215516 | 91 | 0.0 | 0.0 | 0.00 | 0.00 | 0.00 | 48 | 1019.3 | |
| 20260901214516 | 91 | 0.0 | 0.0 | 0.00 | 0.00 | 0.00 | 54 | 1019.3 | |
| 20260901213536 | 91 | 0.0 | 0.0 | 0.00 | 0.00 | 0.00 | 55 | 1019.3 | |
| 20260901212517 | 92 | 0.0 | 0.0 | 0.00 | 0.00 | 0.00 | 53 | 1019.4 | |
| 20260901211516 | 93 | 0.0 | 2.0 | 0.00 | 0.00 | 0.00 | 54 | 1019.6 | |
| 20260901210516 | 93 | 0.0 | 1.0 | 0.00 | 0.00 | 0.00 | 50 | 1019.6 | |
| 20260901205536 | 94 | 0.0 | 1.0 | 0.00 | 0.00 | 0.00 | 49 | 1019.7 | |
| 20260901204516 | 93 | 0.0 | 1.0 | 0.00 | 0.00 | 0.00 | 47 | 1019.8 | |
| 20260901203516 | 93 | 0.0 | 2.0 | 0.00 | 0.00 | 0.00 | 51 | 1019.9 | |
| 20260901202557 | 92 | 0.0 | 1.0 | 0.00 | 0.00 | 0.00 | 51 | 1019.9 | |
| 20260901201516 | 92 | 0.0 | 1.0 | 0.00 | 0.00 | 0.00 | 51 | 1020.1 | |
| 20260901200516 | 92 | 315 | 1.0 | 6.0 | 0.00 | 0.00 | 0.00 | 47 | 1020.1 |
| 20260901195516 | 93 | 315 | 1.0 | 3.0 | 0.00 | 0.00 | 0.00 | 51 | 1020.3 |
| 20260901194516 | 93 | 0.0 | 0.0 | 0.00 | 0.00 | 0.00 | 53 | 1020.4 | |
| 20260901193515 | 93 | 23 | 1.0 | 4.0 | 0.00 | 0.00 | 0.00 | 52 | 1020.5 |
| 20260901192516 | 92 | 0.0 | 3.0 | 0.00 | 0.00 | 0.00 | 53 | 1020.8 | |
| 20260901191516 | 91 | 0.0 | 3.0 | 0.00 | 0.00 | 0.00 | 56 | 1020.8 | |
| 20260901190536 | 92 | 0.0 | 2.0 | 0.00 | 0.00 | 0.00 | 54 | 1020.9 | |
| 20260901184516 | 93 | 0.0 | 2.0 | 0.00 | 0.00 | 0.00 | 47 | 1021.1 | |
| 20260901183515 | 94 | 0.0 | 1.0 | 0.00 | 0.00 | 0.00 | 50 | 1021.3 | |
| 20260901182515 | 93 | 45 | 1.0 | 3.0 | 0.00 | 0.00 | 0.00 | 50 | 1021.3 |
| 20260901181518 | 93 | 0.0 | 2.0 | 0.00 | 0.00 | 0.00 | 50 | 1021.4 | |
| 20260901180517 | 93 | 0.0 | 3.0 | 0.00 | 0.00 | 0.00 | 51 | 1021.5 | |
| 20260901175518 | 92 | 23 | 2.0 | 5.0 | 0.00 | 0.00 | 0.00 | 48 | 1021.5 |
| 20260901174518 | 92 | 0 | 2.0 | 8.0 | 0.00 | 0.00 | 0.00 | 49 | 1021.5 |
| 20260901173518 | 92 | 338 | 1.0 | 4.0 | 0.00 | 0.00 | 0.00 | 54 | 1021.7 |
| 20260901172517 | 92 | 0 | 2.0 | 4.0 | 0.00 | 0.00 | 0.00 | 49 | 1021.7 |
| 20260901171517 | 92 | 90 | 1.0 | 6.0 | 0.00 | 0.00 | 0.00 | 51 | 1021.9 |
| 20260901170517 | 91 | 68 | 1.0 | 3.0 | 0.00 | 0.00 | 0.00 | 55 | 1022.1 |
| 20260901165517 | 91 | 23 | 2.0 | 6.0 | 0.00 | 0.00 | 0.00 | 56 | 1022.1 |